User: anonymous
Location: Caltech
(34.1382°N, 118.1253°W)
Time: 06:47:49
(UTC-07:00)
Language:

PAYLOAD A - Orbit

View from above orbital plane
View from above orbital plane
View from above satellite
View from above satellite

Ground track
Ground track

The orbit data is extracted from the following two-line orbital elements,

1 27840U 03031A   14262.16140444  .00000059  00000-0  32033-4 0  6409
2 27840 098.2303 286.9784 0097342 258.9832 191.8107 14.38724127589226
Epoch (UTC): 19 September 2014 03:52:25
Eccentricity: 0.0097342
inclination: 98.2303°
perigee height: 693 km
apogee height: 832 km
right ascension of ascending node: 286.9784°
argument of perigee: 258.9832°
revolutions per day: 14.38724127
mean anomaly at epoch: 191.8107°
orbit number at epoch: 58922

The dashed part of the orbit path shows where the satellite is in the earth's shadow,  

DLR